This demonstration page uses our WeatherBlox Daily Observations layout. Learn more.

Left ArrowRight Arrow

Hourly Observations for July 9, 2018

Temp ( °F °C ) Dew Point ( °F °C ) Humidity (%) Winds ( mph kmh ) Pressure ( in mb ) Visibility ( mi km ) Precip ( " mm )
12:53 am 00:53 Clear 66 18.9 43 6.1 43 43 ENE 14 22 30.02 1017 10 16 0.00 0.00
1:53 am 01:53 Clear 64 17.8 47 8.3 54 54 ENE 10 17 30.02 1017 10 16 0.00 0.00
2:53 am 02:53 Clear 63 17.2 49 9.4 60 60 ENE 8 13 30.01 1016 10 16 0.00 0.00
3:53 am 03:53 Clear 62 16.7 50 10 65 65 E 7 11 30.01 1016 10 16 0.00 0.00
4:53 am 04:53 Clear 61 16.1 51 10.6 70 70 ENE 15 24 30.01 1016 10 16 0.00 0.00
5:53 am 05:53 Sunny 61 16.1 52 11.1 72 72 ENE 12 19 30.01 1016 10 16 0.00 0.00
6:53 am 06:53 Sunny 63 17.2 53 11.7 70 70 E 10 17 30.02 1017 10 16 0.00 0.00
7:53 am 07:53 Sunny 65 18.3 51 10.6 61 61 VRB 6 9 30.04 1017 10 16 0.00 0.00
8:53 am 08:53 Sunny 73 22.8 52 11.1 48 48 Calm 30.04 1017 10 16 0.00 0.00
9:53 am 09:53 Sunny 78 25.6 50 10 37 37 Calm 30.03 1017 10 16 0.00 0.00
10:53 am 10:53 Sunny 81 27.2 51 10.6 35 35 Calm 30.02 1017 10 16 0.00 0.00
11:53 am 11:53 Sunny 87 30.6 52 11.1 30 30 Calm 30.01 1016 10 16 0.00 0.00
12:53 pm 12:53 Sunny 90 32.2 54 12.2 29 29 VRB 3 6 29.99 1016 10 16 0.00 0.00
1:53 pm 13:53 Sunny 92 33.3 48 8.9 22 22 Calm 29.97 1015 10 16 0.00 0.00
2:53 pm 14:53 Sunny 93 33.9 45 7.2 19 19 undefined N/A 29.96 1015 10 16 0.00 0.00
3:53 pm 15:53 Sunny 96 35.6 40 4.4 14 14 WSW 7 11 29.95 1014 10 16 0.00 0.00
4:53 pm 16:53 Sunny 98 36.7 38 3.3 12 12 VRB 7 11 29.93 1014 10 16 0.00 0.00
5:53 pm 17:53 Sunny 95 35 35 1.7 12 12 Calm 29.92 1013 10 16 0.00 0.00
6:53 pm 18:53 Sunny 96 35.6 36 2.2 12 12 Calm 29.91 1013 10 16 0.00 0.00
7:53 pm 19:53 Sunny 95 35 39 3.9 14 14 Calm 29.89 1012 10 16 0.00 0.00
8:53 pm 20:53 Sunny 85 29.4 47 8.3 27 27 ENE 7 11 29.89 1012 10 16 0.00 0.00
9:53 pm 21:53 Clear 76 24.4 53 11.7 45 45 ESE 8 13 29.91 1013 10 16 0.00 0.00
10:53 pm 22:53 Clear 74 23.3 50 10 43 43 ENE 5 7 29.91 1013 10 16 0.00 0.00
11:53 pm 23:53 Clear 74 23.3 48 8.9 40 40 ENE 8 13 29.90 1013 10 16 0.00 0.00

Powered by AerisWeather